WD6AWP Weather Reports


time (UTC)temp
C
wind
direction
speed
KPH
gust
KPH
rain 1hr
cm
rain 24hr
cm
rain mn
cm
humidity
%
barometer
mb
20260903164512 23 217 0.0 8.0 0.00 0.00 0.00 76 1014.4
20260903163011 23 232 3.2 8.0 0.00 0.00 0.00 76 1014.3
20260903161511 23 329 0.0 4.8 0.00 0.00 0.00 77 1014.3
20260903160006 23 64 0.0 0.0 0.00 0.00 0.00 78 1014.3
20260903154502 22 64 0.0 0.0 0.00 0.00 0.00 81 1014.3
20260903153058 21 58 0.0 0.0 0.00 0.00 0.00 83 1014.2
20260903151554 20 48 0.0 0.0 0.00 0.00 0.00 85 1014.3
20260903150051 20 48 0.0 0.0 0.00 0.00 0.00 86 1014.3
20260903144547 18 48 0.0 0.0 0.00 0.00 0.00 88 1014.4
20260903143102 18 48 0.0 0.0 0.00 0.00 0.00 88 1014.1
20260903141558 17 48 0.0 0.0 0.00 0.00 0.00 90 1013.9
20260903140046 17 47 0.0 0.0 0.00 0.00 0.00 90 1013.7
20260903134548 17 47 0.0 0.0 0.00 0.00 0.00 91 1013.5
20260903133045 17 47 0.0 3.2 0.00 0.00 0.00 92 1013.5
20260903131545 17 278 0.0 0.0 0.00 0.00 0.00 92 1013.4
20260903130042 17 278 0.0 0.0 0.00 0.00 0.00 92 1013.5
20260903124544 16 278 0.0 0.0 0.00 0.00 0.00 92 1013.5
20260903123041 17 278 0.0 0.0 0.00 0.00 0.00 92 1013.5
20260903121540 17 278 0.0 0.0 0.00 0.00 0.00 92 1013.4
20260903120039 17 278 0.0 0.0 0.00 0.00 0.00 92 1013.5
20260903114544 17 278 0.0 0.0 0.00 0.00 0.00 91 1013.6
20260903113036 17 278 0.0 0.0 0.00 0.00 0.00 92 1013.8
20260903111540 17 278 0.0 0.0 0.00 0.00 0.00 92 1013.8
20260903110040 17 278 0.0 0.0 0.00 0.00 0.00 92 1013.8
20260903104538 17 278 0.0 0.0 0.00 0.00 0.00 91 1013.9
20260903103035 17 278 0.0 0.0 0.00 0.00 0.00 91 1014.0
20260903101537 17 278 0.0 0.0 0.00 0.00 0.00 91 1014.1
20260903100029 17 278 0.0 0.0 0.00 0.00 0.00 92 1014.0
20260903094528 17 278 0.0 3.2 0.00 0.00 0.00 92 1014.1
20260903093026 17 278 0.0 0.0 0.00 0.00 0.00 91 1014.2
20260903091524 17 278 0.0 0.0 0.00 0.00 0.00 91 1014.3
20260903090022 17 278 0.0 0.0 0.00 0.00 0.00 91 1014.5
20260903084520 17 278 0.0 0.0 0.00 0.00 0.00 90 1014.6
20260903083033 17 278 0.0 0.0 0.00 0.00 0.00 90 1014.6
20260903081529 17 278 0.0 0.0 0.00 0.00 0.00 89 1014.7
20260903080017 18 278 0.0 0.0 0.00 0.00 0.00 89 1014.7
20260903074516 18 278 0.0 0.0 0.00 0.00 0.00 88 1014.8
20260903073017 18 278 0.0 0.0 0.00 0.00 0.00 87 1014.7
20260903071510 18 278 0.0 0.0 0.00 0.00 0.00 87 1014.7
20260903070008 18 278 0.0 0.0 0.00 0.00 0.00 86 1014.6
20260903064509 19 278 0.0 0.0 0.00 0.00 0.00 86 1014.7
20260903063007 20 278 0.0 0.0 0.00 0.00 0.00 85 1014.6
20260903061509 20 278 0.0 4.8 0.00 0.00 0.00 84 1014.5
20260903060006 20 278 0.0 1.6 0.00 0.00 0.00 82 1014.6
20260903054506 20 278 1.6 6.4 0.00 0.00 0.00 83 1014.7
20260903053005 20 278 4.8 12.9 0.00 0.00 0.00 83 1014.7
20260903051505 20 278 0.0 0.0 0.00 0.00 0.00 82 1014.6
20260903050004 20 278 0.0 0.0 0.00 0.00 0.00 81 1014.6
20260903044504 20 278 0.0 11.3 0.00 0.00 0.00 81 1014.5
20260903043004 20 278 3.2 8.0 0.00 0.00 0.00 81 1014.4
20260903041503 20 277 3.2 9.7 0.00 0.00 0.00 81 1014.5
20260903040003 20 277 0.0 3.2 0.00 0.00 0.00 78 1014.4
20260903034502 21 277 1.6 6.4 0.00 0.00 0.00 79 1014.1
20260903033002 21 277 4.8 12.9 0.00 0.00 0.00 80 1014.0
20260903031600 21 284 4.8 14.5 0.00 0.00 0.00 79 1013.9
20260903030100 21 273 9.7 14.5 0.00 0.00 0.00 79 1013.9
20260903024600 21 269 8.0 16.1 0.00 0.00 0.00 78 1013.9
20260903023059 21 261 12.9 19.3 0.00 0.00 0.00 78 1013.7
20260903021558 22 275 12.9 19.3 0.00 0.00 0.00 77 1013.8
20260903020059 22 257 16.1 24.1 0.00 0.00 0.00 76 1013.8
20260903014557 22 282 16.1 27.4 0.00 0.00 0.00 75 1013.7
20260903013056 22 257 14.5 29.0 0.00 0.00 0.00 76 1013.7
20260903011605 22 260 19.3 33.8 0.00 0.00 0.00 75 1013.7
20260903010052 23 276 22.5 32.2 0.00 0.00 0.00 75 1013.6
20260903004550 24 259 19.3 33.8 0.00 0.00 0.00 76 1013.6
20260903003049 23 260 19.3 32.2 0.00 0.00 0.00 76 1013.5
20260903001548 24 284 17.7 29.0 0.00 0.00 0.00 75 1013.5
20260903000047 25 273 16.1 27.4 0.00 0.00 0.00 73 1013.6
20260902234547 25 219 12.9 27.4 0.00 0.00 0.00 72 1013.7
20260902233054 25 253 8.0 22.5 0.00 0.00 0.00 68 1013.9
20260902231553 25 221 9.7 24.1 0.00 0.00 0.00 64 1014.0
20260902230041 25 259 11.3 24.1 0.00 0.00 0.00 66 1014.0
20260902224547 25 233 9.7 24.1 0.00 0.00 0.00 67 1014.2
20260902223037 26 206 9.7 16.1 0.00 0.00 0.00 71 1014.4
20260902221545 26 209 11.3 19.3 0.00 0.00 0.00 70 1014.5
20260902220033 26 217 11.3 20.9 0.00 0.00 0.00 70 1014.7
20260902214531 25 223 11.3 19.3 0.00 0.00 0.00 70 1014.9
20260902213030 25 281 11.3 24.1 0.00 0.00 0.00 71 1015.1
20260902211534 26 272 9.7 24.1 0.00 0.00 0.00 71 1015.2
20260902210027 26 250 9.7 17.7 0.00 0.00 0.00 71 1015.3
20260902204525 25 235 9.7 16.1 0.00 0.00 0.00 71 1015.4
20260902203025 26 260 8.0 17.7 0.00 0.00 0.00 69 1015.4
20260902201533 25 260 9.7 16.1 0.00 0.00 0.00 70 1015.4
20260902200023 25 269 4.8 17.7 0.00 0.00 0.00 71 1015.6
20260902194523 25 286 9.7 19.3 0.00 0.00 0.00 70 1015.7
20260902193021 25 311 8.0 17.7 0.00 0.00 0.00 70 1015.8
20260902191528 25 280 8.0 17.7 0.00 0.00 0.00 70 1016.0
20260902190018 25 275 9.7 20.9 0.00 0.00 0.00 70 1016.1
20260902184516 25 196 3.2 11.3 0.00 0.00 0.00 70 1016.0
20260902183019 25 214 1.6 12.9 0.00 0.00 0.00 71 1016.2
20260902181512 25 284 4.8 14.5 0.00 0.00 0.00 71 1016.4
20260902180012 25 256 4.8 16.1 0.00 0.00 0.00 71 1016.4
20260902174510 25 248 6.4 12.9 0.00 0.00 0.00 70 1016.4
20260902173008 25 226 3.2 16.1 0.00 0.00 0.00 72 1016.3
20260902171505 24 249 3.2 14.5 0.00 0.00 0.00 71 1016.2
20260902170002 24 236 3.2 9.7 0.00 0.00 0.00 74 1016.1